Location: Arpaise
(41.0333°N, 14.7333°E)
Time: 13:47:46
(UTC+00:00)

Cosmos 846 Rocket - Pass Details

Date: 25 January 2021
Orbit: 948 x 991 km, 82.9° (Epoch: 04 March)

Event Time Altitude Azimuth Distance (km) Brightness Sun altitude
Rises 16:57:57 0° 156° (SSE) 3,663 8.4 -9.4°
Reaches altitude 10° 17:00:44 10° 147° (SSE) 2,713 7.7 -9.9°
Maximum altitude 17:06:05 31° 87° (E) 1,618 6.1 -10.8°
Drops below altitude 10° 17:11:24 10° 27° (NNE) 2,703 7.4 -11.8°
Sets 17:14:09 0° 18° (NNE) 3,647 8.2 -12.3°
